Location: Irma
(52.9170°N, 111.2330°W)
Time: 12:09:33
(UTC-06:00)

Daily predictions for brighter satellites

Satellite Brightness Start Highest point End
(mag) Time Altitude Azimuth Time Altitude Azimuth Time Altitude Azimuth
COSMOS 2455 3.2 22:11:08 10° S 22:16:46 43° ESE 22:22:26 10° NE
Cosmos 1603 3.7 22:13:10 10° SSW 22:18:42 65° ESE 22:24:16 10° NE
YAOGAN 6 2.7 22:15:28 10° SSE 22:19:13 87° ENE 22:22:59 10° NNW
Lacrosse 5 2.6 22:16:40 10° W 22:21:41 58° N 22:26:43 10° ENE
Cosmos 1992 Rocket 4.3 22:19:14 10° NNW 22:24:27 68° WSW 22:29:38 10° SSE
Terra 2.6 22:23:20 10° SE 22:27:48 41° ENE 22:32:15 10° N
Cosmos 1346 Rocket 3.6 22:25:14 10° SSE 22:28:44 32° E 22:32:17 10° NNE
Cosmos 2084 3.8 22:25:45 10° NW 22:29:45 58° NE 22:33:55 10° ESE
BREEZE-M DEB (TANK) 3.7 22:28:10 10° SSW 22:29:45 14° SSE 22:31:02 10° ESE
IGS 5A 4.4 22:27:59 10° SE 22:31:47 36° ENE 22:35:38 10° N
Cosmos 2333 Rocket 4.5 22:29:46 10° W 22:34:44 30° NW 22:39:43 10° NNE
Cosmos 1953 Rocket 4.1 22:30:44 10° SSE 22:34:55 43° E 22:39:09 10° NNE
Cosmos 2279 Rocket 4.3 22:28:53 10° N 22:35:05 59° ENE 22:41:15 10° SSE
Aureole 2 Rocket 3.9 22:34:42 10° SW 22:38:14 41° WNW 22:41:29 10° NNE
Cosmos 1943 Rocket 2.4 22:35:16 10° NNW 22:40:48 64° NE 22:46:20 10° SE
Cosmos 1943 3.5 22:36:48 10° S 22:42:11 46° ESE 22:47:37 10° NE
SAR-Lupe-2 3.9 22:39:44 10° SSE 22:43:13 53° ENE 22:46:45 10° N
H-2A R/B 2.3 22:38:28 10° SSE 22:43:21 59° ENE 22:48:23 10° N
Lacrosse 4 Rocket 2.5 22:40:08 10° SSE 22:43:25 24° ESE 22:46:44 10° ENE
Cosmos-2242 3.7 22:40:14 10° N 22:44:28 44° ENE 22:48:31 11° SE
UNK 4.3 22:42:03 10° NNE 22:47:26 85° WNW 22:53:02 10° SSW
Cosmos 1758 4.2 22:44:41 10° N 22:48:34 38° ENE 22:52:08 12° SE
Cosmos 2346 Rocket 4.5 22:42:58 10° S 22:49:08 76° E 22:55:15 10° NNE
SeaSat 1 4.0 22:45:59 10° SSW 22:50:13 28° WSW 22:54:30 10° NW
Cosmos 1190 Rocket 4.3 22:45:45 10° S 22:50:52 50° ESE 22:56:01 10° NNE
SPOT 1/Viking Rocket 4.1 22:47:11 10° S 22:52:15 55° W 22:57:20 10° NNW
CZ-4B R/B 3.6 22:48:22 10° NNE 22:53:27 87° WNW 22:58:37 10° SSW
Cosmos 1656 Rocket 4.4 22:50:08 10° NNW 22:55:39 48° NE 23:01:08 10° ESE
Cosmos 1766 3.3 22:54:09 10° N 22:58:11 85° E 23:01:58 11° SSE
Cosmos 676 Rocket 4.5 23:02:30 10° S 23:07:32 44° ESE 23:12:34 10° NE
Cosmos 1758 Rocket 3.5 23:04:37 10° S 23:08:59 74° E 23:13:21 10° NNE
CARTOSAT-1 3.6 23:08:33 12° SSE 23:12:28 84° WSW 23:16:51 10° NNW
Cosmos 2369 Rocket 3.4 23:14:49 10° NW 23:19:55 35° WSW 23:24:58 10° S
ARGOS 4.1 23:15:38 10° S 23:20:46 43° W 23:25:57 10° NNW
ISS -2.7 23:22:20 10° SW 23:25:18 32° SSE 23:28:17 10° E
NOSS 2 (A) 4.1 23:23:40 10° NW 23:26:00 73° NE 23:27:32 20° SE
Cosmos 1825 Rocket 4.5 23:22:16 10° SSW 23:26:36 49° WNW 23:30:56 10° N
Cosmos 1470 3.7 23:22:58 10° N 23:26:36 35° ENE 23:29:15 16° SE
ALOS 2 4.4 23:23:58 10° ESE 23:27:20 22° ENE 23:30:43 10° N
SL-27 R/B 3.2 23:28:34 19° SSE 23:30:21 33° ESE 23:33:25 10° NE
ATLAS 3B R/B 3.0 23:22:48 10° SSW 23:30:22 64° SE 23:37:42 10° NE
Cosmos 1805 3.2 23:27:01 10° N 23:31:00 85° ENE 23:33:53 18° SSE
ATLAS CENTAUR R/B 4.3 23:27:35 10° WNW 23:31:52 27° NNW 23:36:04 10° NE
Cosmos 1842 Rocket 3.6 23:28:52 10° N 23:33:15 69° ENE 23:36:28 18° SSE
Spot 2 4.4 23:28:47 10° NNE 23:33:29 70° ESE 23:38:03 12° S
SL-8 R/B 4.1 23:29:10 10° W 23:33:46 43° SSW 23:37:39 14° SE
Cosmos 1818 4.4 23:28:35 10° NW 23:33:54 47° NE 23:39:11 10° ESE
Atlas Centaur 2 4.5 23:33:17 10° SSW 23:36:54 14° S 23:38:00 13° S
Cosmos 407 Rocket 3.5 23:33:19 10° SSW 23:38:36 90° NW 23:43:51 10° NNE
Cosmos 1953 2.5 23:35:24 10° NNW 23:39:22 67° W 23:42:23 17° S
Cosmos 1340 4.0 23:43:01 18° SE 23:44:47 25° E 23:47:57 10° NE
Lacrosse 5 rocket 2.4 23:41:40 10° W 23:45:37 48° N 23:49:49 10° ENE
Cosmos 1092 Rocket 4.3 23:42:22 16° SSE 23:47:14 53° E 23:53:20 10° NNE
Cosmos 2208 Rocket 4.1 23:45:00 10° NNW 23:50:10 71° WSW 23:53:55 19° SSE
Spot 4 4.4 23:48:23 15° S 23:52:14 50° W 23:56:55 10° NNW
CZ-4B R/B 3.2 23:51:14 14° ESE 23:53:40 27° ENE 23:56:50 10° N
